Regional Weather Roundup
Issued by NWS

Home | Current Version | Previous Version | Text Only | Print | Product List | Glossary Off
Versions: 1 2 3 4 5 6 7 8 9 10 11 12 13 14 15 16 17 18 19 20 21 22 23 24 25 26 27 28 29 30 31 32 33 34 35 36 37 38 39 40 41 42 43 44 45 46 47 48 49 50

000
ASUS43 KMPX 241310
RWRMN
WEATHER ROUNDUP FOR MINNESOTA
NATIONAL WEATHER SERVICE TWIN CITIES/CHANHASSEN MN
800 AM CDT TUE MAY 24 2016


NOTE: "FAIR" INDICATES FEW OR NO CLOUDS BELOW 12,000 FEET WITH NO
SIGNIFICANT WEATHER AND/OR OBSTRUCTIONS TO VISIBILITY. N/A MEANS
CURRENT SKY AND/OR WEATHER CONDITIONS ARE NOT AVAILABLE.

MNZ060>063-068>070-241400-
   Twin Cities Metro

CITY           SKY/WX    TMP DP  RH WIND       PRES   REMARKS
TWIN CITIES    MOSUNNY   68  60  75 SW8       29.84S
ST PAUL        MOSUNNY   68  61  78 MISG      29.84S
CRYSTAL        SUNNY     67  60  78 SW9       29.82R
BLAINE         MOSUNNY   68  64  88 SW8       29.83R
EDEN PRAIRIE   MOSUNNY   67  60  78 SW9       29.84R
SOUTH ST PAUL  CLOUDY    68  60  76 SW7       29.84R
LAKE ELMO      FAIR      68  61  77 SW10      29.85R
$$
MNZ001>005-007-008-013>017-022>024-027-028-241400-
   Northwest Minnesota

CITY           SKY/WX    TMP DP  RH WIND       PRES   REMARKS
BEMIDJI        CLOUDY    59  51  74 W8        29.86S
HALLOCK        CLOUDY    57  54  88 NW6       29.83R
ROSEAU         LGT RAIN  61  54  77 SW3       29.82R
WARROAD        CLOUDY    61  54  77 CALM      29.83R
THIEF RVR FALL PTSUNNY   59  48  67 NW8       29.83F
CROOKSTON      CLOUDY    61  52  72 E9        29.78S
FOSSTON          N/A     63  55  77 CALM      29.85S
DETROIT LAKES  MOSUNNY   61  52  72 E5        29.86F
MOORHEAD       PTSUNNY   63  50  63 E8        29.83R
PARK RAPIDS    PTSUNNY   59  54  83 NW7       29.86R
MAHNOMEN       PTSUNNY   60  52  74 E6        29.85S
$$
MNZ006-009>011-018-025>026-241400-
   North Central Minnesota

CITY           SKY/WX    TMP DP  RH WIND       PRES   REMARKS
BAUDETTE       PTSUNNY   59  52  77 S3        29.79S
FLAG ISLAND    CLOUDY    61  55  82 S3        29.79R
INTL FALLS     CLOUDY    58  57  97 SE3       29.81R
WASKISH        CLOUDY    63  55  77 SW12      29.83R
BIG FORK       CLOUDY    63  52  67 CALM      29.84R
LONGVILLE      PTSUNNY   57  55  94 CALM      29.82R
CRANE LAKE     CLOUDY    57  55  94 CALM      29.85R
ORR            CLOUDY    59  55  88 SE21G28   29.79F
COOK           CLOUDY    61  57  88 CALM      29.86R
WALKER         LGT RAIN  59  54  85 NW8       29.85R
$$
MNZ012-019>021-037-241400-
   Northeast Minnesota

CITY           SKY/WX    TMP DP  RH WIND       PRES   REMARKS
DULUTH         LGT RAIN  60  58  92 NE3       29.85R FOG
ELY            CLOUDY    57  55  94 CALM      29.86S
HIBBING        CLOUDY    59  54  83 S3        29.85S
EVELETH        LGT RAIN  59  59 100 S8        29.87S
DULUTH HARBOR  TSTM      55  54  94 CALM      29.84R
TWO HARBORS    CLOUDY    63  57  82 SE3       29.82S
SILVER BAY     RAIN      61  57  88 CALM      29.83S
GRAND MARAIS     N/A     45  44  97 CALM      29.85R
G MARAIS ARPRT MOSUNNY   61  55  82 CALM      29.88S
$$
MNZ029>031-032-039>041-046>048-054>057-064-241400-
   West Central Minnesota

CITY           SKY/WX    TMP DP  RH WIND       PRES   REMARKS
FERGUS FALLS   SUNNY     64  50  59 NE15G22   29.80S
WHEATON        SUNNY     66  52  59 N14       29.83S
MORRIS         SUNNY     64  57  77 N9        29.81S
ALEXANDRIA     LGT RAIN  63  60  90 NE12      29.86R
ELBOW LAKE     FAIR      63  60  90 NE13G18   29.83R
WADENA         PTSUNNY   61  54  77 NW8       29.86R
GLENWOOD       MOSUNNY   63  61  94 N3        29.84R
APPLETON       SUNNY     64  57  77 CALM      29.82S
BENSON         MOSUNNY   61  59  94 SW5       29.84R FOG
ORTONVILLE     SUNNY     64  54  68 NE10      29.83R
MADISON        SUNNY     63  61  94 NW5       29.83R
WILLMAR        FOG       61  61 100 SW6       29.86R VSB<1/4
$$
MNZ033>034-036-042>043-049>051-058-059-241400-
   Central Minnesota

CITY           SKY/WX    TMP DP  RH WIND       PRES   REMARKS
SAUK CENTRE    CLOUDY    59  59 100 CALM      29.85R VSB 1/4
PAYNESVILLE    FOG       62  62 100 W5        29.84R VSB 1/4
AITKIN         CLOUDY    63  57  82 CALM      29.83R
PINE RIVER     MOSUNNY   64  54  68 SE6       29.85F
BRAINERD       CLOUDY    61  58  90 NE5       29.84S
STAPLES        MOSUNNY   63  52  67 E6        29.84R
LONG PRAIRIE   CLOUDY    61  59  94 CALM      29.85R FOG
LITTLE FALLS   CLOUDY    61  59  94 CALM      29.84R FOG
LITCHFIELD     FOG       63  63 100 SW3       29.85R VSB<1/4
BUFFALO        CLOUDY    64  61  90 S5        29.84R FOG
MAPLE LAKE     CLOUDY    64  64  98 SW5       29.85R FOG
HUTCHINSON     CLOUDY    65  64  97 S6        29.86R FOG
$$
MNZ037-044-045-052-053-241400-
   East Central Minnesota

CITY           SKY/WX    TMP DP  RH WIND       PRES   REMARKS
PRINCETON      CLOUDY    66  63  88 SW5       29.83R FOG
MORA           CLOUDY    61  59  94 W7        29.84R FOG
CAMBRIDGE      MOSUNNY   68  59  73 SW6       29.80S
RUSH CITY      CLOUDY    63  61  95 CALM      29.83R
MOOSE LAKE     CLOUDY    61  59  94 CALM      29.82S THUNDER
HINCKLEY       CLOUDY    63  63 100 W3        29.82S
CLOQUET        CLOUDY    61  57  88 E5        29.84S THUNDER FOG
MCGREGOR       MOSUNNY   61  59  94 N5        29.84S
$$
MNZ071>073-080-081-089-090-097-098-241400-
   Southwest Minnesota

CITY           SKY/WX    TMP DP  RH WIND       PRES   REMARKS
MONTEVIDEO     FOG       61  61 100 W3        29.86R VSB<1/4
GRANITE FALLS  CLOUDY    65  64  99 S7        29.86R FOG
CANBY          PTSUNNY   67  64  90 W6        29.87R
MARSHALL       PTSUNNY   65  62  90 SW15      29.85R FOG
REDWOOD FALLS  MOSUNNY   63  61  93 S3        29.85R FOG
OLIVIA         CLOUDY    59  57  94 SW7       29.84R FOG
PIPESTONE      CLOUDY    63  63 100 S9        29.87R FOG
WINDOM         CLOUDY    64  61  88 S10G20    29.88R
WORTHINGTON    CLOUDY    63  60  90 S15       29.90R
JACKSON        CLOUDY    64  57  77 SW14      29.90R
TRACY          SUNNY     66  61  82 SW16      29.86R
SLAYTON        CLOUDY    62  62  97 S12G20    29.89R
$$
MNZ065>067-074>077-082>085-091>093-241400-
   South Central Minnesota

CITY           SKY/WX    TMP DP  RH WIND       PRES   REMARKS
MANKATO        CLOUDY    66  57  72 SW9       29.87R
NEW ULM        MOSUNNY   64  63  94 SW8       29.86R
ST JAMES       CLOUDY    61  55  82 S7        29.88R
FAIRMONT       CLOUDY    64  57  77 SW13      29.89R
GLENCOE        MOSUNNY   66  64  94 SW5       29.84R
FARIBAULT      MOSUNNY   64  61  88 SW6       29.87R
OWATONNA       CLOUDY    66  61  82 SW8       29.88R
WASECA         CLOUDY    64  59  82 SW9       29.89R
ALBERT LEA     CLOUDY    66  61  82 W8        29.88R
$$
MNZ078>079-086>088-094>096-241400-
   Southeast Minnesota

CITY           SKY/WX    TMP DP  RH WIND       PRES   REMARKS
ROCHESTER      CLOUDY    64  62  93 W6        29.88R
RED WING       CLOUDY    66  63  88 CALM      29.84S
STANTON        PTSUNNY   68  61  77 SW9       29.85R
DODGE CENTER   CLOUDY    64  61  88 W9        29.87R
WINONA         PTSUNNY   66  59  77 CALM      29.86F
AUSTIN         CLOUDY    64  61  88 W5        29.88R
PRESTON        CLOUDY    62  58  87 S6        29.89R
$$
ABBREVIATIONS USED IN REMARKS
   TC - TEMPERATURES IN CELSIUS
  WCI - WIND CHILL INDEX
   HX - HEAT INDEX
  VSB - VISIBILITY
$$




USA.gov is the U.S. government's official web portal to all federal, state and local government web resources and services.